Location: Barcelona
(41.3830°N, 2.1830°E)
Time: 16:10:12
(UTC+02:00)

ISS - Pass Details

Date: 19 September 2019
Orbit: 411 x 421 km, 51.6° (Epoch: 18 September)

Event Time Altitude Azimuth Distance (km) Brightness Sun altitude
Rises 20:32:15 0° 201° (SSW) 2,328 0.2 -7.9°
Reaches altitude 10° 20:34:39 10° 185° (S) 1,471 -1.0 -8.3°
Maximum altitude 20:37:13 21° 133° (SE) 980 -2.4 -8.8°
Enters shadow 20:39:16 13° 89° (E) 1,317 -1.9 -9.2°
